This is the latest recevied weather packets stored in our database for station/object DL3GCR-10. If no packets are shown the sender has not sent any weather packets the latest 10 day(s).
| Time | Temp. | Humidity | Pressure | Rain* | Wind** | Luminosity | Snow |
|---|---|---|---|---|---|---|---|
| 1777168319 | 7.78° C | 62% | 1022.4 hPa | - | - | - | - |
| 1777167418 | 7.78° C | 60% | 1022.4 hPa | - | - | - | - |
| 1777166518 | 8.33° C | 61% | 1022.3 hPa | - | - | - | - |
| 1777164717 | 8.89° C | 59% | 1022.2 hPa | - | - | - | - |
| 1777163817 | 8.89° C | 58% | 1022.1 hPa | - | - | - | - |
| 1777162916 | 9.44° C | 58% | 1022 hPa | - | - | - | - |
| 1777162016 | 10° C | 54% | 1021.9 hPa | - | - | - | - |
| 1777161116 | 10° C | 56% | 1021.7 hPa | - | - | - | - |
| 1777160216 | 10° C | 57% | 1021.7 hPa | - | - | - | - |
| 1777159315 | 10.56° C | 55% | 1021.6 hPa | - | - | - | - |
| 1777158415 | 10.56° C | 55% | 1021.5 hPa | - | - | - | - |
| 1777157515 | 11.11° C | 54% | 1021.5 hPa | - | - | - | - |
| 1777156614 | 11.11° C | 53% | 1021.4 hPa | - | - | - | - |
| 1777155714 | 11.67° C | 50% | 1021.3 hPa | - | - | - | - |
| 1777154813 | 12.22° C | 50% | 1021.2 hPa | - | - | - | - |
| 1777153913 | 12.22° C | 49% | 1021.1 hPa | - | - | - | - |
| 1777153013 | 12.78° C | 47% | 1021 hPa | - | - | - | - |
| 1777152113 | 12.78° C | 46% | 1020.9 hPa | - | - | - | - |
| 1777151213 | 12.78° C | 47% | 1020.6 hPa | - | - | - | - |
| 1777150313 | 13.33° C | 47% | 1020.6 hPa | - | - | - | - |
| 1777149412 | 13.89° C | 45% | 1020.4 hPa | - | - | - | - |
| 1777148512 | 14.44° C | 43% | 1020.2 hPa | - | - | - | - |
| 1777147612 | 14.44° C | 43% | 1020.2 hPa | - | - | - | - |
| 1777146712 | 15° C | 42% | 1020.2 hPa | - | - | - | - |
| 1777145812 | 15.56° C | 40% | 1020 hPa | - | - | - | - |
* Rain since midnight (hover to see other rain measurements)
** Current wind speed in m/s (hover to see current wind gust speed)